When you browse on this site, cookies collect data to enhance your experience and personalize the content and advertising you see.
Visit our Privacy Policy to learn more. By continuing to use the site, you agree to this use of cookies and data.
  • In Romania
  • List of Countries
  • For 7 days
  • Water Temperature
  • Satellite Maps
  • Weather Map
  • Weather Widgets
  • user-avatar
    Login

    Hourly Weather Gulabpura

    Today, 16 February, Saturday

    Time Temperature Precipitation Wind Pressure Humidity
    00:00 +16°C° 0 mm 2 mps 727 mmHg 27%
    01:00 +16°C° 0 mm 2 mps 727 mmHg 28%
    02:00 +15°C° 0 mm 2 mps 727 mmHg 29%
    03:00 +15°C° 0 mm 2 mps 727 mmHg 31%
    04:00 +14°C° 0 mm 2 mps 727 mmHg 32%
    05:00 +14°C° 0 mm 2 mps 727 mmHg 34%
    06:00 +14°C° 0 mm 2 mps 728 mmHg 34%
    07:00 +15°C° 0 mm 2 mps 728 mmHg 35%
    08:00 +16°C° 0 mm 2 mps 729 mmHg 35%
    09:00 +17°C° 0 mm 2 mps 729 mmHg 32%
    10:00 +19°C° 0 mm 2 mps 729 mmHg 29%
    11:00 +21°C° 0 mm 2 mps 730 mmHg 26%
    12:00 +23°C° 0 mm 2 mps 729 mmHg 24%
    13:00 +24°C° 0 mm 2 mps 728 mmHg 21%
    14:00 +25°C° 0 mm 2 mps 728 mmHg 18%
    15:00 +25°C° 0 mm 2 mps 727 mmHg 17%
    16:00 +25°C° 0 mm 2 mps 727 mmHg 17%
    17:00 +25°C° 0 mm 2 mps 727 mmHg 17%
    18:00 +22°C° 0 mm 3 mps 727 mmHg 18%
    19:00 +20°C° 0 mm 3 mps 728 mmHg 20%
    20:00 +19°C° 0 mm 3 mps 728 mmHg 22%
    21:00 +18°C° 0 mm 3 mps 728 mmHg 24%
    22:00 +17°C° 0 mm 2 mps 728 mmHg 25%
    23:00 +17°C° 0 mm 2 mps 728 mmHg 27%

    Tomorrow, 17 February, Sunday

    Time Temperature Precipitation Wind Pressure Humidity
    00:00 +16°C° 0 mm 2 mps 728 mmHg 28%
    01:00 +15°C° 0 mm 2 mps 727 mmHg 29%
    02:00 +15°C° 0 mm 2 mps 727 mmHg 31%
    03:00 +14°C° 0 mm 1 mps 727 mmHg 32%
    04:00 +14°C° 0 mm 1 mps 727 mmHg 34%
    05:00 +12°C° 0 mm 0 mps 726 mmHg 36%
    06:00 +13°C° 0 mm 0 mps 727 mmHg 33%
    07:00 +15°C° 0 mm 0 mps 727 mmHg 31%
    08:00 +16°C° 0 mm 0 mps 728 mmHg 28%
    09:00 +18°C° 0 mm 0 mps 728 mmHg 25%
    10:00 +20°C° 0 mm 0 mps 728 mmHg 22%
    11:00 +22°C° 0 mm 0 mps 728 mmHg 19%
    12:00 +25°C° 0 mm 1 mps 727 mmHg 17%
    13:00 +26°C° 0 mm 1 mps 726 mmHg 15%
    14:00 +27°C° 0 mm 2 mps 725 mmHg 14%
    15:00 +27°C° 0 mm 2 mps 725 mmHg 14%
    16:00 +27°C° 0 mm 2 mps 725 mmHg 14%
    17:00 +27°C° 0 mm 2 mps 725 mmHg 15%
    18:00 +25°C° 0 mm 2 mps 725 mmHg 16%
    19:00 +24°C° 0 mm 2 mps 725 mmHg 18%
    20:00 +21°C° 0 mm 2 mps 725 mmHg 19%
    21:00 +20°C° 0 mm 2 mps 725 mmHg 21%
    22:00 +21°C° 0 mm 1 mps 724 mmHg 22%
    23:00 +18°C° 0 mm 0 mps 724 mmHg 24%

    Day after tomorrow, 18 February, Monday

    Time Temperature Precipitation Wind Pressure Humidity
    00:00 +20°C° 0 mm 1 mps 724 mmHg 24%
    01:00 +19°C° 0 mm 1 mps 724 mmHg 24%
    02:00 +19°C° 0 mm 1 mps 724 mmHg 23%
    03:00 +19°C° 0 mm 1 mps 723 mmHg 24%
    04:00 +19°C° 0 mm 1 mps 723 mmHg 24%
    05:00 +17°C° 0 mm 2 mps 723 mmHg 24%
    06:00 +18°C° 0 mm 2 mps 724 mmHg 25%
    07:00 +19°C° 0 mm 2 mps 724 mmHg 25%
    08:00 +20°C° 0 mm 2 mps 725 mmHg 26%
    09:00 +22°C° 0 mm 3 mps 725 mmHg 27%
    10:00 +26°C° 0 mm 5 mps 725 mmHg 28%
    11:00 +29°C° 0 mm 6 mps 725 mmHg 29%
    12:00 +29°C° 0 mm 7 mps 724 mmHg 27%
    13:00 +31°C° 0 mm 8 mps 723 mmHg 26%
    14:00 +32°C° 0 mm 9 mps 722 mmHg 24%
    15:00 +31°C° 0 mm 8 mps 722 mmHg 24%
    16:00 +31°C° 0 mm 8 mps 722 mmHg 24%
    17:00 +29°C° 0 mm 7 mps 722 mmHg 24%
    18:00 +28°C° 0 mm 6 mps 722 mmHg 25%
    19:00 +26°C° 0 mm 6 mps 722 mmHg 27%
    20:00 +25°C° 0 mm 5 mps 723 mmHg 28%
    21:00 +23°C° 0 mm 5 mps 723 mmHg 30%
    22:00 +22°C° 0 mm 4 mps 723 mmHg 32%
    23:00 +22°C° 0 mm 4 mps 723 mmHg 33%

    19 February, Tuesday

    Time Temperature Precipitation Wind Pressure Humidity
    00:00 +21°C° 0 mm 4 mps 723 mmHg 36%
    01:00 +21°C° 0 mm 4 mps 723 mmHg 39%
    02:00 +20°C° 0 mm 4 mps 723 mmHg 42%
    03:00 +20°C° 0 mm 4 mps 723 mmHg 44%
    04:00 +20°C° 0 mm 3 mps 723 mmHg 46%
    05:00 +19°C° 0 mm 3 mps 723 mmHg 48%
    06:00 +20°C° 0 mm 4 mps 723 mmHg 46%
    07:00 +20°C° 0 mm 4 mps 724 mmHg 44%
    08:00 +21°C° 0 mm 4 mps 725 mmHg 42%
    09:00 +23°C° 0 mm 4 mps 726 mmHg 38%
    10:00 +27°C° 0 mm 5 mps 726 mmHg 34%
    11:00 +29°C° 0 mm 5 mps 726 mmHg 30%
    12:00 +30°C° 0 mm 5 mps 726 mmHg 27%
    13:00 +32°C° 0 mm 6 mps 725 mmHg 23%
    14:00 +33°C° 0 mm 6 mps 725 mmHg 20%
    15:00 +32°C° 0 mm 6 mps 724 mmHg 21%
    16:00 +30°C° 0 mm 6 mps 724 mmHg 23%
    17:00 +30°C° 0 mm 5 mps 724 mmHg 25%
    18:00 +28°C° 0 mm 5 mps 725 mmHg 29%
    19:00 +26°C° 0 mm 4 mps 725 mmHg 34%
    20:00 +25°C° 0 mm 3 mps 726 mmHg 38%
    21:00 +24°C° 0 mm 2 mps 726 mmHg 40%
    22:00 +24°C° 0 mm 2 mps 726 mmHg 41%
    23:00 +24°C° 0 mm 2 mps 726 mmHg 43%

    20 February, Wednesday

    Time Temperature Precipitation Wind Pressure Humidity
    00:00 +24°C° 0.1 mm 2 mps 726 mmHg 44%
    01:00 +24°C° 0.1 mm 2 mps 726 mmHg 45%
    02:00 +24°C° 0.1 mm 3 mps 726 mmHg 46%
    03:00 +22°C° 0.1 mm 3 mps 726 mmHg 47%
    04:00 +22°C° 0.1 mm 3 mps 726 mmHg 48%
    05:00 +21°C° 0.1 mm 3 mps 726 mmHg 49%
    06:00 +21°C° 0 mm 3 mps 726 mmHg 48%
    07:00 +23°C° 0 mm 2 mps 727 mmHg 47%
    08:00 +23°C° 0 mm 2 mps 727 mmHg 46%
    09:00 +24°C° 0 mm 2 mps 728 mmHg 44%
    10:00 +25°C° 0 mm 3 mps 728 mmHg 42%
    11:00 +26°C° 0 mm 3 mps 728 mmHg 40%
    12:00 +27°C° 0 mm 3 mps 728 mmHg 38%
    13:00 +28°C° 0 mm 3 mps 727 mmHg 36%
    14:00 +28°C° 0 mm 3 mps 726 mmHg 35%
    15:00 +28°C° 0 mm 4 mps 726 mmHg 36%
    16:00 +28°C° 0 mm 4 mps 726 mmHg 36%
    17:00 +28°C° 0 mm 5 mps 726 mmHg 37%
    18:00 +26°C° 0 mm 5 mps 726 mmHg 42%
    19:00 +25°C° 0 mm 5 mps 727 mmHg 46%
    20:00 +22°C° 0 mm 5 mps 727 mmHg 50%
    21:00 +22°C° 0 mm 5 mps 727 mmHg 52%
    22:00 +21°C° 0 mm 4 mps 727 mmHg 54%
    23:00 +20°C° 0 mm 3 mps 727 mmHg 56%

    21 February, Thursday

    Time Temperature Precipitation Wind Pressure Humidity
    00:00 +20°C° 0 mm 3 mps 726 mmHg 57%
    01:00 +19°C° 0 mm 2 mps 726 mmHg 58%
    02:00 +19°C° 0 mm 2 mps 725 mmHg 59%
    03:00 +18°C° 0 mm 2 mps 725 mmHg 60%
    04:00 +18°C° 0 mm 2 mps 725 mmHg 61%
    05:00 +19°C° 0 mm 1 mps 725 mmHg 62%
    06:00 +19°C° 0 mm 1 mps 726 mmHg 60%
    07:00 +19°C° 0 mm 2 mps 727 mmHg 58%
    08:00 +20°C° 0 mm 2 mps 727 mmHg 57%
    09:00 +23°C° 0 mm 2 mps 727 mmHg 49%
    10:00 +26°C° 0 mm 2 mps 728 mmHg 41%
    11:00 +28°C° 0 mm 2 mps 728 mmHg 33%
    12:00 +30°C° 0 mm 3 mps 727 mmHg 29%
    13:00 +31°C° 0 mm 3 mps 726 mmHg 24%
    14:00 +34°C° 0 mm 3 mps 726 mmHg 19%
    15:00 +34°C° 0 mm 4 mps 725 mmHg 19%
    16:00 +33°C° 0 mm 4 mps 725 mmHg 19%
    17:00 +33°C° 0 mm 4 mps 725 mmHg 18%
    18:00 +30°C° 0 mm 4 mps 726 mmHg 21%
    19:00 +28°C° 0 mm 3 mps 726 mmHg 24%
    20:00 +26°C° 0 mm 3 mps 726 mmHg 26%
    21:00 +25°C° 0 mm 3 mps 726 mmHg 29%
    22:00 +25°C° 0 mm 2 mps 726 mmHg 31%
    23:00 +24°C° 0 mm 1 mps 726 mmHg 33%
    Show more